{"data":{"norad_id":43657,"epoch":"2026-09-19T05:53:24.611136Z","epoch_age_seconds":163646,"freshness":"FRESH","line1":"1 43657U 18082A   26262.24542374 -.00000056  00000+0  13574-4 0  9998","line2":"2 43657  67.1482 209.1436 0007761 259.6494 100.3716 13.96714664403080","mean_motion":13.96714664,"eccentricity":0.0007761,"inclination_deg":67.1482,"raan_deg":209.1436,"arg_perigee_deg":259.6494,"mean_anomaly_deg":100.3716,"bstar":1.3574e-5,"rev_number":40308,"period_min":103.09908223316,"perigee_km":899.54138457252,"apogee_km":910.84657091617,"semimajor_km":7283.3309777443,"source":"CELESTRAK","updated_at":"2026-09-20T09:00:14.366283Z"}}